Time,TemperatureF,DewpointF,PressureIn,WindDirection,WindDirectionDegrees,WindSpeedMPH,WindSpeedGustMPH,Humidity,HourlyPrecipIn,Conditions,Clouds,dailyrainin,SoftwareType,DateUTC
2013-05-23 00:00:00,47.2,40.0,29.95,NNW,338,0.0,0.0,76,0.00,,,0.00,Wunderground v.1.15,2013-05-23 07:00:00,
2013-05-23 00:10:00,47.1,39.9,29.94,NW,323,0.0,0.0,76,0.00,,,0.00,Wunderground v.1.15,2013-05-23 07:10:00,
2013-05-23 00:15:00,47.0,39.8,29.94,WNW,282,0.0,0.0,76,0.00,,,0.00,Wunderground v.1.15,2013-05-23 07:15:00,
2013-05-23 00:20:00,46.8,39.6,29.94,WNW,302,0.0,0.0,76,0.00,,,0.00,Wunderground v.1.15,2013-05-23 07:20:00,
2013-05-23 00:25:00,46.7,39.9,29.94,NW,309,0.0,0.0,77,0.00,,,0.00,Wunderground v.1.15,2013-05-23 07:25:00,
2013-05-23 00:30:00,46.5,39.7,29.94,NW,309,0.0,0.0,77,0.00,,,0.00,Wunderground v.1.15,2013-05-23 07:30:00,
2013-05-23 00:35:00,46.4,39.6,29.94,WNW,294,0.0,0.0,77,0.00,,,0.00,Wunderground v.1.15,2013-05-23 07:35:00,
2013-05-23 00:40:00,46.3,39.5,29.95,WNW,294,0.0,0.0,77,0.00,,,0.00,Wunderground v.1.15,2013-05-23 07:40:00,
2013-05-23 00:50:00,46.4,39.6,29.94,WNW,290,0.0,0.0,77,0.00,,,0.00,Wunderground v.1.15,2013-05-23 07:50:00,
2013-05-23 01:00:00,46.3,39.5,29.94,WNW,290,0.0,0.0,77,0.00,,,0.00,Wunderground v.1.15,2013-05-23 08:00:00,
2013-05-23 01:05:00,46.3,39.8,29.95,WNW,290,0.0,0.0,78,0.00,,,0.00,Wunderground v.1.15,2013-05-23 08:05:00,
2013-05-23 01:10:00,46.2,39.7,29.94,WNW,290,0.0,0.0,78,0.00,,,0.00,Wunderground v.1.15,2013-05-23 08:10:00,
2013-05-23 01:20:00,46.0,39.9,29.94,WNW,290,0.0,0.0,79,0.00,,,0.00,Wunderground v.1.15,2013-05-23 08:20:00,
2013-05-23 01:25:00,45.8,40.0,29.95,WNW,290,0.0,0.0,80,0.00,,,0.00,Wunderground v.1.15,2013-05-23 08:25:00,
2013-05-23 01:30:00,45.7,40.2,29.94,WNW,298,0.0,0.0,81,0.00,,,0.00,Wunderground v.1.15,2013-05-23 08:30:00,
2013-05-23 01:35:00,45.8,40.6,29.95,WNW,298,0.0,0.0,82,0.00,,,0.00,Wunderground v.1.15,2013-05-23 08:35:00,
2013-05-23 01:40:00,45.8,40.6,29.95,WNW,298,0.0,0.0,82,0.00,,,0.00,Wunderground v.1.15,2013-05-23 08:40:00,
2013-05-23 01:45:00,45.9,41.0,29.95,WNW,298,0.0,0.0,83,0.00,,,0.00,Wunderground v.1.15,2013-05-23 08:45:00,
2013-05-23 01:55:00,46.1,41.5,29.94,WNW,298,0.0,0.0,84,0.00,,,0.00,Wunderground v.1.15,2013-05-23 08:55:00,
2013-05-23 02:00:00,46.3,41.7,29.94,NW,326,0.0,0.0,84,0.00,,,0.00,Wunderground v.1.15,2013-05-23 09:00:00,
2013-05-23 02:05:00,46.6,41.7,29.94,NW,321,0.0,1.0,83,0.00,,,0.00,Wunderground v.1.15,2013-05-23 09:05:00,
2013-05-23 02:15:00,46.8,41.3,29.94,NNW,331,0.0,0.0,81,0.00,,,0.00,Wunderground v.1.15,2013-05-23 09:15:00,
2013-05-23 02:20:00,46.8,41.0,29.94,NW,322,0.0,0.0,80,0.00,,,0.00,Wunderground v.1.15,2013-05-23 09:20:00,
2013-05-23 02:25:00,46.8,41.0,29.94,NW,314,0.0,0.0,80,0.00,,,0.00,Wunderground v.1.15,2013-05-23 09:25:00,
2013-05-23 02:30:00,46.8,40.6,29.94,NW,314,0.0,0.0,79,0.00,,,0.00,Wunderground v.1.15,2013-05-23 09:30:00,
2013-05-23 02:40:00,46.6,40.4,29.94,NW,314,0.0,0.0,79,0.00,,,0.00,Wunderground v.1.15,2013-05-23 09:40:00,
2013-05-23 02:45:00,46.6,40.4,29.94,NW,314,0.0,0.0,79,0.00,,,0.00,Wunderground v.1.15,2013-05-23 09:45:00,
2013-05-23 02:50:00,46.4,40.6,29.94,NW,314,0.0,0.0,80,0.00,,,0.00,Wunderground v.1.15,2013-05-23 09:50:00,
2013-05-23 02:55:00,46.3,40.5,29.94,NW,314,0.0,0.0,80,0.00,,,0.00,Wunderground v.1.15,2013-05-23 09:55:00,
2013-05-23 03:05:00,45.9,40.1,29.93,NW,314,0.0,0.0,80,0.00,,,0.00,Wunderground v.1.15,2013-05-23 10:05:00,
2013-05-23 03:10:00,45.7,40.2,29.93,NW,314,0.0,0.0,81,0.00,,,0.00,Wunderground v.1.15,2013-05-23 10:10:00,
2013-05-23 03:15:00,45.6,40.1,29.93,NW,314,0.0,0.0,81,0.00,,,0.00,Wunderground v.1.15,2013-05-23 10:15:00,
2013-05-23 03:20:00,45.3,39.8,29.93,NW,314,0.0,0.0,81,0.00,,,0.00,Wunderground v.1.15,2013-05-23 10:20:00,
2013-05-23 03:25:00,45.1,39.9,29.93,NW,314,0.0,0.0,82,0.00,,,0.00,Wunderground v.1.15,2013-05-23 10:25:00,
2013-05-23 03:30:00,44.9,40.0,29.93,NW,314,0.0,0.0,83,0.00,,,0.00,Wunderground v.1.15,2013-05-23 10:30:00,
2013-05-23 03:35:00,44.8,39.6,29.93,NW,314,0.0,0.0,82,0.00,,,0.00,Wunderground v.1.15,2013-05-23 10:35:00,
2013-05-23 03:40:00,44.6,39.8,29.93,NW,314,0.0,0.0,83,0.00,,,0.00,Wunderground v.1.15,2013-05-23 10:40:00,
2013-05-23 03:45:00,44.6,39.8,29.93,NW,314,0.0,0.0,83,0.00,,,0.00,Wunderground v.1.15,2013-05-23 10:45:00,
2013-05-23 03:55:00,44.7,39.9,29.94,NW,314,0.0,0.0,83,0.00,,,0.00,Wunderground v.1.15,2013-05-23 10:55:00,
2013-05-23 04:00:00,44.6,39.8,29.94,NW,314,0.0,0.0,83,0.00,,,0.00,Wunderground v.1.15,2013-05-23 11:00:00,
2013-05-23 04:05:00,44.4,39.6,29.93,SSW,194,0.0,0.0,83,0.00,,,0.00,Wunderground v.1.15,2013-05-23 11:05:00,
2013-05-23 04:15:00,44.2,39.4,29.93,WSW,257,0.0,0.0,83,0.00,,,0.00,Wunderground v.1.15,2013-05-23 11:15:00,
2013-05-23 04:20:00,44.2,39.7,29.93,WNW,290,0.0,0.0,84,0.00,,,0.00,Wunderground v.1.15,2013-05-23 11:20:00,
2013-05-23 04:25:00,44.3,39.8,29.94,West,263,0.0,0.0,84,0.00,,,0.00,Wunderground v.1.15,2013-05-23 11:25:00,
2013-05-23 04:35:00,44.4,39.9,29.94,NW,320,0.0,0.0,84,0.00,,,0.00,Wunderground v.1.15,2013-05-23 11:35:00,
2013-05-23 04:40:00,44.4,39.6,29.94,NW,320,0.0,0.0,83,0.00,,,0.00,Wunderground v.1.15,2013-05-23 11:40:00,
2013-05-23 04:45:00,44.4,39.6,29.94,NW,319,0.0,0.0,83,0.00,,,0.00,Wunderground v.1.15,2013-05-23 11:45:00,
2013-05-23 04:55:00,44.3,39.5,29.94,NW,315,0.0,2.0,83,0.00,,,0.00,Wunderground v.1.15,2013-05-23 11:55:00,
2013-05-23 05:00:00,44.4,39.6,29.94,NW,323,0.0,0.0,83,0.00,,,0.00,Wunderground v.1.15,2013-05-23 12:00:00,
2013-05-23 05:10:00,44.2,39.4,29.94,NW,306,0.0,0.0,83,0.00,,,0.00,Wunderground v.1.15,2013-05-23 12:10:00,
2013-05-23 05:15:00,44.0,39.2,29.94,NW,306,0.0,0.0,83,0.00,,,0.00,Wunderground v.1.15,2013-05-23 12:15:00,
2013-05-23 05:20:00,43.8,39.3,29.94,NW,306,0.0,0.0,84,0.00,,,0.00,Wunderground v.1.15,2013-05-23 12:20:00,
2013-05-23 05:25:00,43.7,39.2,29.94,NW,304,0.0,0.0,84,0.00,,,0.00,Wunderground v.1.15,2013-05-23 12:25:00,
2013-05-23 05:30:00,43.5,39.0,29.94,NW,304,0.0,0.0,84,0.00,,,0.00,Wunderground v.1.15,2013-05-23 12:30:00,
2013-05-23 05:40:00,43.1,38.9,29.95,NW,304,0.0,0.0,85,0.00,,,0.00,Wunderground v.1.15,2013-05-23 12:40:00,
2013-05-23 05:45:00,42.9,39.0,29.95,NW,304,0.0,0.0,86,0.00,,,0.00,Wunderground v.1.15,2013-05-23 12:45:00,
2013-05-23 05:55:00,42.8,38.9,29.95,NW,304,0.0,0.0,86,0.00,,,0.00,Wunderground v.1.15,2013-05-23 12:55:00,
2013-05-23 06:00:00,42.7,38.8,29.95,NW,304,0.0,0.0,86,0.00,,,0.00,Wunderground v.1.15,2013-05-23 13:00:00,
2013-05-23 06:05:00,42.7,38.8,29.95,NW,304,0.0,0.0,86,0.00,,,0.00,Wunderground v.1.15,2013-05-23 13:05:00,
2013-05-23 06:10:00,42.6,38.7,29.95,NW,304,0.0,0.0,86,0.00,,,0.00,Wunderground v.1.15,2013-05-23 13:10:00,
2013-05-23 06:15:00,42.5,38.9,29.96,NW,304,0.0,0.0,87,0.00,,,0.00,Wunderground v.1.15,2013-05-23 13:15:00,
2013-05-23 06:20:00,42.4,38.8,29.96,NW,304,0.0,0.0,87,0.00,,,0.00,Wunderground v.1.15,2013-05-23 13:20:00,
2013-05-23 06:30:00,42.5,38.9,29.96,NW,304,0.0,0.0,87,0.00,,,0.00,Wunderground v.1.15,2013-05-23 13:30:00,
2013-05-23 06:35:00,42.8,39.2,29.96,NW,304,0.0,0.0,87,0.00,,,0.00,Wunderground v.1.15,2013-05-23 13:35:00,
2013-05-23 06:40:00,43.1,39.2,29.96,NW,304,0.0,0.0,86,0.00,,,0.00,Wunderground v.1.15,2013-05-23 13:40:00,
2013-05-23 06:45:00,43.2,39.3,29.96,NW,304,0.0,0.0,86,0.00,,,0.00,Wunderground v.1.15,2013-05-23 13:45:00,
2013-05-23 06:50:00,43.7,39.5,29.96,NW,304,0.0,0.0,85,0.00,,,0.00,Wunderground v.1.15,2013-05-23 13:50:00,
2013-05-23 06:55:00,44.4,39.6,29.96,NW,306,0.0,0.0,83,0.00,,,0.00,Wunderground v.1.15,2013-05-23 13:55:00,
2013-05-23 07:00:00,45.0,39.8,29.97,NW,305,0.0,0.0,82,0.00,,,0.00,Wunderground v.1.15,2013-05-23 14:00:00,
2013-05-23 07:05:00,45.6,40.1,29.97,NNW,340,0.0,0.0,81,0.00,,,0.00,Wunderground v.1.15,2013-05-23 14:05:00,
2013-05-23 07:15:00,46.5,40.3,29.97,WNW,298,0.0,0.0,79,0.00,,,0.00,Wunderground v.1.15,2013-05-23 14:15:00,
2013-05-23 07:20:00,46.7,40.2,29.97,WNW,302,0.0,0.0,78,0.00,,,0.00,Wunderground v.1.15,2013-05-23 14:20:00,
2013-05-23 07:25:00,46.9,40.4,29.97,West,262,1.0,1.0,78,0.00,,,0.00,Wunderground v.1.15,2013-05-23 14:25:00,
2013-05-23 07:30:00,47.1,40.3,29.97,NW,308,1.0,1.0,77,0.00,,,0.00,Wunderground v.1.15,2013-05-23 14:30:00,
2013-05-23 07:35:00,47.2,40.4,29.97,NW,305,1.0,2.0,77,0.00,,,0.00,Wunderground v.1.15,2013-05-23 14:35:00,
2013-05-23 07:40:00,47.5,40.0,29.97,West,267,1.0,1.0,75,0.00,,,0.00,Wunderground v.1.15,2013-05-23 14:40:00,
2013-05-23 07:45:00,47.8,40.3,29.97,NW,325,1.0,1.0,75,0.00,,,0.00,Wunderground v.1.15,2013-05-23 14:45:00,
2013-05-23 07:55:00,48.4,40.5,29.98,East,88,0.0,0.0,74,0.00,,,0.00,Wunderground v.1.15,2013-05-23 14:55:00,
2013-05-23 08:00:00,48.4,40.1,29.98,NW,316,1.0,1.0,73,0.00,,,0.00,Wunderground v.1.15,2013-05-23 15:00:00,
2013-05-23 08:10:00,48.5,39.9,29.98,WNW,295,1.0,1.0,72,0.00,,,0.00,Wunderground v.1.15,2013-05-23 15:10:00,
2013-05-23 08:20:00,48.9,40.3,29.98,WSW,249,1.0,1.0,72,0.00,,,0.00,Wunderground v.1.15,2013-05-23 15:20:00,
2013-05-23 08:25:00,49.2,40.6,29.98,WSW,253,0.0,2.0,72,0.00,,,0.00,Wunderground v.1.15,2013-05-23 15:25:00,
2013-05-23 08:30:00,49.5,40.5,29.98,NNW,346,0.0,3.0,71,0.00,,,0.00,Wunderground v.1.15,2013-05-23 15:30:00,
2013-05-23 08:35:00,49.6,40.2,29.98,WNW,285,1.0,3.0,70,0.00,,,0.00,Wunderground v.1.15,2013-05-23 15:35:00,
2013-05-23 08:40:00,49.9,40.5,29.98,WNW,300,1.0,3.0,70,0.00,,,0.00,Wunderground v.1.15,2013-05-23 15:40:00,
2013-05-23 08:45:00,50.1,40.3,29.98,NW,313,1.0,3.0,69,0.00,,,0.00,Wunderground v.1.15,2013-05-23 15:45:00,
2013-05-23 08:50:00,49.9,40.1,29.98,West,273,2.0,2.0,69,0.00,,,0.00,Wunderground v.1.15,2013-05-23 15:50:00,
2013-05-23 09:00:00,50.7,40.5,29.99,West,267,2.0,2.0,68,0.00,,,0.00,Wunderground v.1.15,2013-05-23 16:00:00,
2013-05-23 09:05:00,51.3,41.1,29.99,West,280,1.0,2.0,68,0.00,,,0.00,Wunderground v.1.15,2013-05-23 16:05:00,
2013-05-23 09:10:00,51.8,40.8,29.99,West,260,1.0,2.0,66,0.00,,,0.00,Wunderground v.1.15,2013-05-23 16:10:00,
2013-05-23 09:15:00,52.3,40.9,29.99,WSW,252,1.0,2.0,65,0.00,,,0.00,Wunderground v.1.15,2013-05-23 16:15:00,
2013-05-23 09:20:00,53.0,41.5,29.99,NW,320,1.0,2.0,65,0.00,,,0.00,Wunderground v.1.15,2013-05-23 16:20:00,
2013-05-23 09:30:00,53.4,41.9,30.00,SSE,156,1.0,1.0,65,0.00,,,0.00,Wunderground v.1.15,2013-05-23 16:30:00,
2013-05-23 09:35:00,54.3,42.0,30.00,SE,133,1.0,1.0,63,0.00,,,0.00,Wunderground v.1.15,2013-05-23 16:35:00,
2013-05-23 09:40:00,54.8,41.6,30.00,WSW,248,1.0,3.0,61,0.00,,,0.00,Wunderground v.1.15,2013-05-23 16:40:00,
2013-05-23 09:45:00,54.8,41.2,30.00,WNW,289,1.0,4.0,60,0.00,,,0.00,Wunderground v.1.15,2013-05-23 16:45:00,
2013-05-23 09:50:00,54.4,40.8,30.00,NW,305,1.0,3.0,60,0.00,,,0.00,Wunderground v.1.15,2013-05-23 16:50:00,
2013-05-23 09:55:00,54.6,41.8,30.00,West,263,1.0,3.0,62,0.00,,,0.00,Wunderground v.1.15,2013-05-23 16:55:00,
2013-05-23 10:00:00,55.3,41.6,30.00,SE,141,1.0,1.0,60,0.00,,,0.00,Wunderground v.1.15,2013-05-23 17:00:00,
2013-05-23 10:10:00,56.0,41.9,30.00,NW,306,1.0,4.0,59,0.00,,,0.00,Wunderground v.1.15,2013-05-23 17:10:00,
2013-05-23 10:15:00,55.5,41.4,30.00,NW,315,1.0,4.0,59,0.00,,,0.00,Wunderground v.1.15,2013-05-23 17:15:00,
2013-05-23 10:20:00,56.2,42.1,30.00,WSW,255,1.0,1.0,59,0.00,,,0.00,Wunderground v.1.15,2013-05-23 17:20:00,
2013-05-23 10:25:00,56.7,42.1,30.00,WSW,240,0.0,3.0,58,0.00,,,0.00,Wunderground v.1.15,2013-05-23 17:25:00,
2013-05-23 10:35:00,56.7,41.6,30.00,West,263,1.0,1.0,57,0.00,,,0.00,Wunderground v.1.15,2013-05-23 17:35:00,
2013-05-23 10:40:00,57.0,41.9,30.00,SW,227,1.0,1.0,57,0.00,,,0.00,Wunderground v.1.15,2013-05-23 17:40:00,
2013-05-23 10:45:00,57.4,41.4,30.00,WSW,252,1.0,1.0,55,0.00,,,0.00,Wunderground v.1.15,2013-05-23 17:45:00,
2013-05-23 10:50:00,58.1,41.0,30.00,WNW,286,1.0,1.0,53,0.00,,,0.00,Wunderground v.1.15,2013-05-23 17:50:00,
2013-05-23 10:55:00,57.4,40.9,30.00,SW,229,1.0,1.0,54,0.00,,,0.00,Wunderground v.1.15,2013-05-23 17:55:00,
2013-05-23 11:00:00,58.1,42.5,30.00,SSE,157,1.0,1.0,56,0.00,,,0.00,Wunderground v.1.15,2013-05-23 18:00:00,
2013-05-23 11:10:00,60.7,43.0,30.00,SE,145,1.0,3.0,52,0.00,,,0.00,Wunderground v.1.15,2013-05-23 18:10:00,
2013-05-23 11:15:00,60.9,42.1,30.00,SE,140,1.0,3.0,50,0.00,,,0.00,Wunderground v.1.15,2013-05-23 18:15:00,
2013-05-23 11:20:00,60.4,42.2,30.00,ESE,107,1.0,1.0,51,0.00,,,0.00,Wunderground v.1.15,2013-05-23 18:20:00,
2013-05-23 11:25:00,60.3,41.0,30.00,West,273,2.0,6.0,49,0.00,,,0.00,Wunderground v.1.15,2013-05-23 18:25:00,
2013-05-23 11:35:00,60.3,42.1,30.00,WNW,294,2.0,2.0,51,0.00,,,0.00,Wunderground v.1.15,2013-05-23 18:35:00,
2013-05-23 11:40:00,60.3,41.6,30.00,WNW,296,1.0,2.0,50,0.00,,,0.00,Wunderground v.1.15,2013-05-23 18:40:00,
2013-05-23 11:45:00,61.2,42.9,30.00,WNW,291,1.0,2.0,51,0.00,,,0.00,Wunderground v.1.15,2013-05-23 18:45:00,
2013-05-23 11:55:00,61.6,42.2,30.01,NW,311,1.0,1.0,49,0.00,,,0.00,Wunderground v.1.15,2013-05-23 18:55:00,
2013-05-23 12:00:00,62.1,41.6,30.01,West,261,1.0,1.0,47,0.00,,,0.00,Wunderground v.1.15,2013-05-23 19:00:00,
2013-05-23 12:05:00,62.4,42.4,30.01,WNW,282,1.0,1.0,48,0.00,,,0.00,Wunderground v.1.15,2013-05-23 19:05:00,
2013-05-23 12:10:00,63.2,41.5,30.01,SW,221,1.0,1.0,45,0.00,,,0.00,Wunderground v.1.15,2013-05-23 19:10:00,
2013-05-23 12:15:00,63.9,42.1,30.01,SSE,163,1.0,1.0,45,0.00,,,0.00,Wunderground v.1.15,2013-05-23 19:15:00,
2013-05-23 12:20:00,64.9,43.0,30.01,ESE,113,0.0,1.0,45,0.00,,,0.00,Wunderground v.1.15,2013-05-23 19:20:00,
2013-05-23 12:25:00,65.1,42.6,30.01,West,270,1.0,2.0,44,0.00,,,0.00,Wunderground v.1.15,2013-05-23 19:25:00,
2013-05-23 12:30:00,65.0,42.5,30.01,West,275,1.0,1.0,44,0.00,,,0.00,Wunderground v.1.15,2013-05-23 19:30:00,
2013-05-23 12:35:00,64.7,41.7,30.01,SSW,200,1.0,1.0,43,0.00,,,0.00,Wunderground v.1.15,2013-05-23 19:35:00,
2013-05-23 12:45:00,64.5,42.7,30.01,SSE,153,1.0,1.0,45,0.00,,,0.00,Wunderground v.1.15,2013-05-23 19:45:00,
2013-05-23 12:50:00,65.0,43.1,30.01,ENE,78,1.0,2.0,45,0.00,,,0.00,Wunderground v.1.15,2013-05-23 19:50:00,
2013-05-23 12:55:00,65.1,42.6,30.01,NW,304,2.0,3.0,44,0.00,,,0.00,Wunderground v.1.15,2013-05-23 19:55:00,
2013-05-23 13:00:00,64.7,43.4,30.00,West,269,2.0,2.0,46,0.00,,,0.00,Wunderground v.1.15,2013-05-23 20:00:00,
2013-05-23 13:05:00,64.7,42.9,30.00,NW,325,2.0,7.0,45,0.00,,,0.00,Wunderground v.1.15,2013-05-23 20:05:00,
2013-05-23 13:10:00,63.6,43.0,30.00,West,260,2.0,2.0,47,0.00,,,0.00,Wunderground v.1.15,2013-05-23 20:10:00,
2013-05-23 13:20:00,65.7,43.8,30.01,WSW,250,2.0,2.0,45,0.00,,,0.00,Wunderground v.1.15,2013-05-23 20:20:00,
2013-05-23 13:25:00,66.5,44.5,30.00,ESE,107,1.0,2.0,45,0.00,,,0.00,Wunderground v.1.15,2013-05-23 20:25:00,
2013-05-23 13:30:00,66.3,43.7,30.01,WNW,295,1.0,1.0,44,0.00,,,0.00,Wunderground v.1.15,2013-05-23 20:30:00,
2013-05-23 13:35:00,66.4,44.4,30.01,SW,233,1.0,1.0,45,0.00,,,0.00,Wunderground v.1.15,2013-05-23 20:35:00,
2013-05-23 13:40:00,66.5,44.5,30.01,West,277,1.0,1.0,45,0.00,,,0.00,Wunderground v.1.15,2013-05-23 20:40:00,
2013-05-23 13:50:00,66.7,44.1,30.01,NNW,334,1.0,1.0,44,0.00,,,0.00,Wunderground v.1.15,2013-05-23 20:50:00,
2013-05-23 13:55:00,66.7,44.1,30.02,WSW,243,2.0,3.0,44,0.00,,,0.00,Wunderground v.1.15,2013-05-23 20:55:00,
2013-05-23 14:00:00,66.4,44.4,30.02,West,263,2.0,2.0,45,0.00,,,0.00,Wunderground v.1.15,2013-05-23 21:00:00,
2013-05-23 14:10:00,66.4,44.4,30.01,ESE,109,1.0,1.0,45,0.00,,,0.00,Wunderground v.1.15,2013-05-23 21:10:00,
2013-05-23 14:15:00,66.6,44.6,30.01,WNW,292,1.0,1.0,45,0.00,,,0.00,Wunderground v.1.15,2013-05-23 21:15:00,
2013-05-23 14:20:00,66.7,44.7,30.01,WNW,294,1.0,1.0,45,0.00,,,0.00,Wunderground v.1.15,2013-05-23 21:20:00,
2013-05-23 14:25:00,66.7,44.7,30.01,WSW,255,1.0,1.0,45,0.00,,,0.00,Wunderground v.1.15,2013-05-23 21:25:00,
2013-05-23 14:30:00,66.1,44.1,30.01,West,279,2.0,2.0,45,0.00,,,0.00,Wunderground v.1.15,2013-05-23 21:30:00,
2013-05-23 14:40:00,66.0,44.6,30.01,NW,317,2.0,2.0,46,0.00,,,0.00,Wunderground v.1.15,2013-05-23 21:40:00,
2013-05-23 14:45:00,66.2,44.8,30.01,West,263,2.0,5.0,46,0.00,,,0.00,Wunderground v.1.15,2013-05-23 21:45:00,
2013-05-23 14:50:00,65.7,43.8,30.01,West,266,2.0,3.0,45,0.00,,,0.00,Wunderground v.1.15,2013-05-23 21:50:00,
2013-05-23 14:55:00,66.2,45.4,30.01,West,264,2.0,3.0,47,0.00,,,0.00,Wunderground v.1.15,2013-05-23 21:55:00,
2013-05-23 15:00:00,66.9,45.4,30.01,WSW,249,2.0,3.0,46,0.00,,,0.00,Wunderground v.1.15,2013-05-23 22:00:00,
2013-05-23 15:10:00,67.1,45.0,30.01,SW,234,2.0,2.0,45,0.00,,,0.00,Wunderground v.1.15,2013-05-23 22:10:00,
2013-05-23 15:15:00,66.9,44.9,30.01,West,273,2.0,2.0,45,0.00,,,0.00,Wunderground v.1.15,2013-05-23 22:15:00,
2013-05-23 15:20:00,67.4,44.7,30.01,SE,128,1.0,3.0,44,0.00,,,0.00,Wunderground v.1.15,2013-05-23 22:20:00,
2013-05-23 15:25:00,67.3,44.6,30.00,WNW,284,1.0,3.0,44,0.00,,,0.00,Wunderground v.1.15,2013-05-23 22:25:00,
2013-05-23 15:35:00,67.9,45.2,30.00,WSW,256,1.0,2.0,44,0.00,,,0.00,Wunderground v.1.15,2013-05-23 22:35:00,
2013-05-23 15:40:00,68.3,44.9,30.00,NNW,329,1.0,1.0,43,0.00,,,0.00,Wunderground v.1.15,2013-05-23 22:40:00,
2013-05-23 15:45:00,68.1,45.4,30.00,East,90,1.0,3.0,44,0.00,,,0.00,Wunderground v.1.15,2013-05-23 22:45:00,
2013-05-23 15:50:00,67.9,45.2,30.00,West,269,2.0,4.0,44,0.00,,,0.00,Wunderground v.1.15,2013-05-23 22:50:00,
2013-05-23 15:55:00,67.1,44.4,30.00,WSW,248,2.0,4.0,44,0.00,,,0.00,Wunderground v.1.15,2013-05-23 22:55:00,
2013-05-23 16:00:00,66.8,43.6,30.00,SSW,209,2.0,2.0,43,0.00,,,0.00,Wunderground v.1.15,2013-05-23 23:00:00,
2013-05-23 16:10:00,66.0,43.5,30.01,West,268,2.0,4.0,44,0.00,,,0.00,Wunderground v.1.15,2013-05-23 23:10:00,
2013-05-23 16:15:00,65.6,43.7,30.01,WSW,252,2.0,4.0,45,0.00,,,0.00,Wunderground v.1.15,2013-05-23 23:15:00,
2013-05-23 16:20:00,65.5,43.0,30.01,West,259,2.0,3.0,44,0.00,,,0.00,Wunderground v.1.15,2013-05-23 23:20:00,
2013-05-23 16:25:00,65.6,43.7,30.01,West,259,2.0,3.0,45,0.00,,,0.00,Wunderground v.1.15,2013-05-23 23:25:00,
2013-05-23 16:35:00,65.5,43.0,30.00,WSW,258,2.0,3.0,44,0.00,,,0.00,Wunderground v.1.15,2013-05-23 23:35:00,
2013-05-23 16:40:00,65.4,43.5,30.00,West,269,2.0,2.0,45,0.00,,,0.00,Wunderground v.1.15,2013-05-23 23:40:00,
2013-05-23 16:50:00,64.8,42.9,30.00,SSE,153,2.0,2.0,45,0.00,,,0.00,Wunderground v.1.15,2013-05-23 23:50:00,
2013-05-23 16:55:00,64.9,43.6,30.00,WSW,257,2.0,2.0,46,0.00,,,0.00,Wunderground v.1.15,2013-05-23 23:55:00,
2013-05-23 17:00:00,64.7,43.4,30.00,West,265,2.0,4.0,46,0.00,,,0.00,Wunderground v.1.15,2013-05-24 00:00:00,
2013-05-23 17:10:00,64.5,43.3,30.00,SW,228,2.0,2.0,46,0.00,,,0.00,Wunderground v.1.15,2013-05-24 00:10:00,
2013-05-23 17:15:00,64.4,43.2,30.00,West,266,2.0,3.0,46,0.00,,,0.00,Wunderground v.1.15,2013-05-24 00:15:00,
2013-05-23 17:20:00,64.3,43.1,30.00,WNW,300,2.0,2.0,46,0.00,,,0.00,Wunderground v.1.15,2013-05-24 00:20:00,
2013-05-23 17:30:00,64.3,42.5,30.00,West,265,2.0,2.0,45,0.00,,,0.00,Wunderground v.1.15,2013-05-24 00:30:00,
2013-05-23 17:35:00,64.7,41.7,30.00,West,260,1.0,3.0,43,0.00,,,0.00,Wunderground v.1.15,2013-05-24 00:35:00,
2013-05-23 17:40:00,64.9,41.2,30.00,West,264,1.0,2.0,42,0.00,,,0.00,Wunderground v.1.15,2013-05-24 00:40:00,
2013-05-23 17:50:00,65.3,41.6,30.00,WNW,296,1.0,1.0,42,0.00,,,0.00,Wunderground v.1.15,2013-05-24 00:50:00,
2013-05-23 17:55:00,65.5,41.2,30.00,WSW,250,1.0,1.0,41,0.00,,,0.00,Wunderground v.1.15,2013-05-24 00:55:00,
2013-05-23 18:00:00,65.2,40.9,30.00,NNW,332,1.0,1.0,41,0.00,,,0.00,Wunderground v.1.15,2013-05-24 01:00:00,
2013-05-23 18:10:00,64.5,40.9,30.00,West,259,1.0,1.0,42,0.00,,,0.00,Wunderground v.1.15,2013-05-24 01:10:00,
2013-05-23 18:15:00,64.4,40.8,30.00,WNW,283,1.0,3.0,42,0.00,,,0.00,Wunderground v.1.15,2013-05-24 01:15:00,
2013-05-23 18:25:00,63.7,40.8,30.00,West,280,2.0,2.0,43,0.00,,,0.00,Wunderground v.1.15,2013-05-24 01:25:00,
2013-05-23 18:30:00,64.0,41.0,30.00,WNW,284,1.0,1.0,43,0.00,,,0.00,Wunderground v.1.15,2013-05-24 01:30:00,
2013-05-23 18:35:00,64.1,41.1,30.00,WSW,254,1.0,1.0,43,0.00,,,0.00,Wunderground v.1.15,2013-05-24 01:35:00,
2013-05-23 18:45:00,63.9,41.0,30.00,NW,321,1.0,1.0,43,0.00,,,0.00,Wunderground v.1.15,2013-05-24 01:45:00,
2013-05-23 18:50:00,63.7,41.4,30.00,West,263,1.0,1.0,44,0.00,,,0.00,Wunderground v.1.15,2013-05-24 01:50:00,
2013-05-23 18:55:00,63.5,42.3,30.00,SE,138,0.0,1.0,46,0.00,,,0.00,Wunderground v.1.15,2013-05-24 01:55:00,
2013-05-23 19:05:00,62.4,42.4,30.00,NW,314,1.0,3.0,48,0.00,,,0.00,Wunderground v.1.15,2013-05-24 02:05:00,
2013-05-23 19:10:00,62.0,43.1,30.00,SW,232,1.0,1.0,50,0.00,,,0.00,Wunderground v.1.15,2013-05-24 02:10:00,
2013-05-23 19:15:00,61.6,42.8,30.00,NW,309,0.0,1.0,50,0.00,,,0.00,Wunderground v.1.15,2013-05-24 02:15:00,
2013-05-23 19:20:00,61.3,43.0,30.00,NW,309,0.0,0.0,51,0.00,,,0.00,Wunderground v.1.15,2013-05-24 02:20:00,
2013-05-23 19:25:00,61.1,42.8,30.00,SW,218,0.0,0.0,51,0.00,,,0.00,Wunderground v.1.15,2013-05-24 02:25:00,
2013-05-23 19:35:00,60.6,42.9,30.00,West,273,0.0,0.0,52,0.00,,,0.00,Wunderground v.1.15,2013-05-24 02:35:00,
2013-05-23 19:40:00,60.3,43.1,30.00,WSW,240,0.0,0.0,53,0.00,,,0.00,Wunderground v.1.15,2013-05-24 02:40:00,
2013-05-23 19:45:00,60.1,42.4,30.00,SW,234,0.0,0.0,52,0.00,,,0.00,Wunderground v.1.15,2013-05-24 02:45:00,
2013-05-23 19:50:00,59.8,42.6,30.00,NW,319,0.0,0.0,53,0.00,,,0.00,Wunderground v.1.15,2013-05-24 02:50:00,
2013-05-23 20:00:00,59.3,42.6,30.00,NW,312,0.0,0.0,54,0.00,,,0.00,Wunderground v.1.15,2013-05-24 03:00:00,
2013-05-23 20:05:00,59.1,42.9,30.00,NW,311,0.0,0.0,55,0.00,,,0.00,Wunderground v.1.15,2013-05-24 03:05:00,
2013-05-23 20:10:00,58.7,43.0,30.00,NW,311,0.0,0.0,56,0.00,,,0.00,Wunderground v.1.15,2013-05-24 03:10:00,
2013-05-23 20:20:00,58.0,42.8,30.00,NW,311,0.0,0.0,57,0.00,,,0.00,Wunderground v.1.15,2013-05-24 03:20:00,
2013-05-23 20:25:00,57.7,43.5,30.00,WNW,292,0.0,0.0,59,0.00,,,0.00,Wunderground v.1.15,2013-05-24 03:25:00,
2013-05-23 20:35:00,57.1,43.3,30.01,WNW,302,0.0,0.0,60,0.00,,,0.00,Wunderground v.1.15,2013-05-24 03:35:00,
2013-05-23 20:40:00,56.9,43.6,30.00,WNW,293,0.0,0.0,61,0.00,,,0.00,Wunderground v.1.15,2013-05-24 03:40:00,
2013-05-23 20:45:00,56.7,43.4,30.00,NW,319,0.0,0.0,61,0.00,,,0.00,Wunderground v.1.15,2013-05-24 03:45:00,
2013-05-23 20:50:00,56.5,43.6,30.01,NW,319,0.0,0.0,62,0.00,,,0.00,Wunderground v.1.15,2013-05-24 03:50:00,
2013-05-23 21:00:00,56.2,43.3,30.01,NW,309,0.0,0.0,62,0.00,,,0.00,Wunderground v.1.15,2013-05-24 04:00:00,
2013-05-23 21:05:00,55.9,43.5,30.01,NW,309,0.0,0.0,63,0.00,,,0.00,Wunderground v.1.15,2013-05-24 04:05:00,
2013-05-23 21:10:00,55.4,43.4,30.01,NW,309,0.0,0.0,64,0.00,,,0.00,Wunderground v.1.15,2013-05-24 04:10:00,
2013-05-23 21:20:00,54.7,43.2,30.01,NW,309,0.0,0.0,65,0.00,,,0.00,Wunderground v.1.15,2013-05-24 04:20:00,
2013-05-23 21:25:00,54.3,42.8,30.02,NW,309,0.0,0.0,65,0.00,,,0.00,Wunderground v.1.15,2013-05-24 04:25:00,
2013-05-23 21:30:00,54.0,42.9,30.02,NW,309,0.0,0.0,66,0.00,,,0.00,Wunderground v.1.15,2013-05-24 04:30:00,
2013-05-23 21:35:00,53.6,42.5,30.02,NW,309,0.0,0.0,66,0.00,,,0.00,Wunderground v.1.15,2013-05-24 04:35:00,
2013-05-23 21:40:00,53.4,42.7,30.02,NW,309,0.0,0.0,67,0.00,,,0.00,Wunderground v.1.15,2013-05-24 04:40:00,
2013-05-23 21:45:00,53.3,42.6,30.02,NW,309,0.0,0.0,67,0.00,,,0.00,Wunderground v.1.15,2013-05-24 04:45:00,
2013-05-23 21:55:00,53.2,42.5,30.02,NW,316,0.0,0.0,67,0.00,,,0.00,Wunderground v.1.15,2013-05-24 04:55:00,
2013-05-23 22:05:00,52.8,42.1,30.03,NW,316,0.0,0.0,67,0.00,,,0.00,Wunderground v.1.15,2013-05-24 05:05:00,
2013-05-23 22:10:00,52.8,42.1,30.03,NW,316,0.0,0.0,67,0.00,,,0.00,Wunderground v.1.15,2013-05-24 05:10:00,
2013-05-23 22:20:00,52.5,42.2,30.03,NW,316,0.0,0.0,68,0.00,,,0.00,Wunderground v.1.15,2013-05-24 05:20:00,
2013-05-23 22:25:00,52.2,42.0,30.02,NW,316,0.0,0.0,68,0.00,,,0.00,Wunderground v.1.15,2013-05-24 05:25:00,
2013-05-23 22:35:00,51.8,41.9,30.02,NW,321,0.0,1.0,69,0.00,,,0.00,Wunderground v.1.15,2013-05-24 05:35:00,
2013-05-23 22:40:00,51.6,42.1,30.02,NW,321,0.0,0.0,70,0.00,,,0.00,Wunderground v.1.15,2013-05-24 05:40:00,
2013-05-23 22:50:00,51.4,41.9,30.02,NW,321,0.0,0.0,70,0.00,,,0.00,Wunderground v.1.15,2013-05-24 05:50:00,
2013-05-23 22:55:00,51.2,42.1,30.02,NW,321,0.0,0.0,71,0.00,,,0.00,Wunderground v.1.15,2013-05-24 05:55:00,
2013-05-23 23:00:00,51.0,41.9,30.02,NW,321,0.0,0.0,71,0.00,,,0.00,Wunderground v.1.15,2013-05-24 06:00:00,
2013-05-23 23:10:00,50.9,41.5,30.02,NW,321,0.0,0.0,70,0.00,,,0.00,Wunderground v.1.15,2013-05-24 06:10:00,
2013-05-23 23:15:00,50.9,41.5,30.01,NW,321,0.0,0.0,70,0.00,,,0.00,Wunderground v.1.15,2013-05-24 06:15:00,
2013-05-23 23:20:00,50.7,40.9,30.01,NW,321,0.0,0.0,69,0.00,,,0.00,Wunderground v.1.15,2013-05-24 06:20:00,
2013-05-23 23:30:00,50.3,40.9,30.01,NW,321,0.0,0.0,70,0.00,,,0.00,Wunderground v.1.15,2013-05-24 06:30:00,
2013-05-23 23:35:00,50.2,41.2,30.01,NW,321,0.0,0.0,71,0.00,,,0.00,Wunderground v.1.15,2013-05-24 06:35:00,
2013-05-23 23:40:00,50.1,41.1,30.01,NW,321,0.0,0.0,71,0.00,,,0.00,Wunderground v.1.15,2013-05-24 06:40:00,
2013-05-23 23:45:00,49.8,40.8,30.01,NW,321,0.0,0.0,71,0.00,,,0.00,Wunderground v.1.15,2013-05-24 06:45:00,
2013-05-23 23:50:00,49.7,41.0,30.01,NW,321,0.0,0.0,72,0.00,,,0.00,Wunderground v.1.15,2013-05-24 06:50:00,